Location: Newark
(21.1200°N, 73.4000°E)
Time: 14:59:41
(UTC+00:00)

Explorer 11/Cluster Stage 4 - Pass Details

Date: 28 January 2020
Orbit: 467 x 1259 km, 28.8° (Epoch: 23 February)

Event Time Altitude Azimuth Distance (km) Brightness Sun altitude
Rises 09:40:46 0° 281° (W) 4,178 10.7 37.5°
Reaches altitude 10° 09:43:50 10° 287° (WNW) 3,230 10.2 37.0°
Maximum altitude 09:51:46 48° 359° (N) 1,547 8.2 35.7°
Drops below altitude 10° 09:59:08 10° 73° (ENE) 3,000 9.2 34.5°
Sets 10:01:53 0° 79° (ENE) 3,861 9.7 34.0°
